Weather History for Robinson, IL

Change the Weather History Date:

Sunday, September 2, 2012

  Actual Average (KLWV) Record (KLWV)
Temperature  
Mean Temperature 77 °F 74 °F  
Max Temperature 81 °F 86 °F 100 °F (2011)
Min Temperature 73 °F 62 °F 55 °F (1998)
Degree Days  
Heating Degree Days 0 0  
Month to date heating degree days 0  
Since 1 July heating degree days 1  
Cooling Degree Days 12 9  
Month to date cooling degree days 18  
Year to date cooling degree days 1201  
Growing Degree Days 27 (Base 50)    
Moisture  
Dew Point 76 °F    
Average Humidity 98    
Maximum Humidity 100    
Minimum Humidity 87    
Precipitation  
Precipitation 1.26 in 0.10 in 3.77 in (1982)
Month to date precipitation 0.20  
Year to date precipitation 29.55  
Sea Level Pressure  
Sea Level Pressure 29.79 in    
Wind  
Wind Speed 8 mph (ESE)    
Max Wind Speed 13 mph    
Max Gust Speed 17 mph    
Visibility 7 miles    
Events Rain    
T = Trace of Precipitation, MM = Missing Value Source: NWS Daily Summary

Daily Weather History Graph

Daily Weather History Graph

Search for Another Location

Airport:

Trip Planner

Search our weather history database for the weather conditions in past years. The results will help you decide how hot, cold, wet, or windy it might be!

Date:

Astronomy

Sep. 02, 2012 Rise Set
Actual Time 6:20 AM CDT 7:18 PM CDT
Civil Twilight 5:53 AM CDT 7:45 PM CDT
Nautical Twilight 5:21 AM CDT 8:18 PM CDT
Astronomical Twilight 4:47 AM CDT 8:51 PM CDT
Moon 8:07 PM CDT (9/2) 8:27 AM CDT (9/2)
Length of Visible Light 13h 52m
Length of Day
12h 58m
Waning Gibbous, 95% of the Moon is Illuminated
Sep 2
Waning Gibbous
Sep 8
Last Quarter
Sep 15
New
Sep 22
First Quarter
Sep 29
Full

Hourly Weather History & Observations

Time (CDT) Temp. Heat Index Dew Point Humidity Pressure Visibility Wind Dir Wind Speed Gust Speed Precip Events Conditions
12:15 AM 73.8 °F - 73.8 °F 100% 29.88 in 10.0 mi SE 10.4 mph - 0.04 in Rain Light Rain
12:35 AM 73.8 °F - 73.8 °F 100% 29.87 in 10.0 mi SE 9.2 mph - 0.08 in Rain Rain
12:55 AM 73.9 °F - 73.8 °F 99% 29.86 in 10.0 mi ESE 6.9 mph - 0.11 in Rain Light Rain
1:15 AM 73.9 °F - 73.9 °F 100% 29.86 in 10.0 mi ESE 8.1 mph - 0.02 in Rain Rain
1:35 AM 73.9 °F - 73.9 °F 100% 29.85 in 10.0 mi ESE 6.9 mph - 0.04 in Rain Light Rain
1:55 AM 73.9 °F - 73.9 °F 100% 29.84 in 10.0 mi ESE 6.9 mph - 0.05 in Rain Light Rain
2:15 AM 73.9 °F - 73.9 °F 100% 29.84 in 10.0 mi SE 12.7 mph 17.3 mph N/A   Light Drizzle
2:35 AM 73.8 °F - 73.8 °F 100% 29.83 in 5.0 mi ESE 8.1 mph - 0.05 in Rain Heavy Rain
2:55 AM 73.8 °F - 73.8 °F 100% 29.82 in 10.0 mi ESE 12.7 mph 17.3 mph 0.06 in   Overcast
3:15 AM 74.1 °F - 74.1 °F 100% 29.81 in 10.0 mi ESE 9.2 mph - N/A Rain Light Rain
3:35 AM 74.3 °F - 74.3 °F 100% 29.80 in 10.0 mi ESE 10.4 mph 16.1 mph N/A Rain Light Rain
3:55 AM 74.3 °F - 74.3 °F 100% 29.80 in 10.0 mi ESE 12.7 mph 17.3 mph N/A   Drizzle
4:15 AM 74.3 °F - 74.3 °F 100% 29.79 in 5.0 mi ESE 9.2 mph - 0.04 in Rain Heavy Rain
4:35 AM 74.1 °F - 74.1 °F 100% 29.78 in 7.0 mi East 10.4 mph - 0.11 in Rain Rain
4:55 AM 74.3 °F - 74.3 °F 100% 29.77 in 5.0 mi ESE 6.9 mph - 0.14 in Rain Light Rain
5:15 AM 73.9 °F - 73.9 °F 100% 29.77 in 4.0 mi ESE 10.4 mph - 0.02 in Rain Rain
5:35 AM 74.3 °F - 74.3 °F 100% 29.77 in 5.0 mi ESE 10.4 mph - 0.06 in Rain Heavy Rain
5:55 AM 74.3 °F - 74.3 °F 100% 29.77 in 7.0 mi ESE 9.2 mph - 0.11 in Rain Rain
6:15 AM 74.1 °F - 74.1 °F 100% 29.77 in 5.0 mi SE 9.2 mph - 0.06 in Rain Heavy Rain
6:35 AM 73.9 °F - 73.9 °F 100% 29.77 in 4.0 mi SE 10.4 mph - 0.22 in Rain Heavy Rain
6:55 AM 73.9 °F - 73.9 °F 100% 29.77 in 2.5 mi SE 8.1 mph - 0.25 in Rain Light Rain
7:15 AM 74.1 °F - 74.1 °F 100% 29.78 in 4.0 mi SE 9.2 mph - N/A   Drizzle
7:35 AM 74.3 °F - 74.3 °F 100% 29.78 in 3.0 mi SE 8.1 mph - 0.04 in Rain Heavy Rain
7:55 AM 74.3 °F - 74.3 °F 100% 29.78 in 3.0 mi SE 8.1 mph - 0.08 in Rain Heavy Rain
8:15 AM 74.3 °F - 74.3 °F 100% 29.78 in 4.0 mi SE 9.2 mph - 0.01 in Rain Rain
8:35 AM 74.3 °F - 74.3 °F 100% 29.78 in 4.0 mi SSE 8.1 mph - 0.02 in   Heavy Drizzle
8:55 AM 74.5 °F - 74.5 °F 100% 29.78 in 3.0 mi SSE 6.9 mph - 0.04 in   Drizzle
9:15 AM 75.0 °F - 75.0 °F 100% 29.78 in 2.5 mi South 9.2 mph - N/A   Drizzle
9:35 AM 75.2 °F - 75.2 °F 100% 29.79 in 1.8 mi South 8.1 mph - 0.01 in   Overcast
9:55 AM 76.1 °F - 76.1 °F 100% 29.79 in 2.5 mi SSE 6.9 mph - 0.01 in   Drizzle
10:15 AM 76.5 °F - 76.5 °F 100% 29.79 in 5.0 mi SSE 8.1 mph - 0.01 in   Light Drizzle
10:35 AM 77.0 °F - 77.0 °F 100% 29.79 in 5.0 mi SSE 6.9 mph - 0.01 in   Overcast
11:15 AM 78.4 °F - 77.2 °F 96% 29.79 in 10.0 mi SE 8.1 mph - N/A   Mostly Cloudy
11:35 AM 78.3 °F - 77.4 °F 97% 29.79 in 10.0 mi SSE 6.9 mph - N/A   Mostly Cloudy
11:55 AM 77.2 °F - 77.2 °F 100% 29.79 in 2.0 mi South 6.9 mph - 0.05 in Rain Heavy Rain
12:15 PM 77.5 °F - 77.4 °F 99% 29.78 in 4.0 mi South 6.9 mph - N/A Rain Rain
12:35 PM 77.9 °F - 77.9 °F 100% 29.78 in 3.0 mi SSE 9.2 mph - 0.01 in Rain Rain
12:55 PM 79.0 °F - 78.4 °F 98% 29.78 in 10.0 mi SSE 6.9 mph - 0.02 in   Overcast
1:15 PM 79.2 °F - 78.1 °F 96% 29.78 in 7.0 mi South 8.1 mph - N/A   Overcast
1:35 PM 78.8 °F - 78.1 °F 98% 29.77 in 5.0 mi SE 3.5 mph - N/A   Light Drizzle
1:55 PM 81.0 °F 88.6 °F 78.1 °F 91% 29.76 in 10.0 mi SE 6.9 mph - N/A   Mostly Cloudy
2:15 PM 81.0 °F 87.7 °F 76.6 °F 87% 29.76 in 10.0 mi South 4.6 mph - N/A   Overcast
2:35 PM 81.0 °F 88.4 °F 77.7 °F 90% 29.75 in 10.0 mi SSE 6.9 mph - N/A   Overcast
2:55 PM 79.3 °F - 77.9 °F 95% 29.75 in 10.0 mi SE 8.1 mph - N/A   Overcast
3:15 PM 80.1 °F 86.3 °F 77.7 °F 93% 29.75 in 10.0 mi ESE 9.2 mph - N/A   Overcast
3:35 PM 79.9 °F - 77.4 °F 92% 29.75 in 10.0 mi ESE 5.8 mph - N/A   Mostly Cloudy
3:55 PM 80.1 °F 86.0 °F 77.4 °F 91% 29.75 in 10.0 mi ESE 9.2 mph - N/A   Overcast
4:15 PM 79.9 °F - 77.9 °F 94% 29.75 in 10.0 mi SE 8.1 mph - N/A   Overcast
4:35 PM 80.4 °F 87.2 °F 77.9 °F 92% 29.75 in 10.0 mi East 9.2 mph - N/A   Overcast
4:55 PM 79.9 °F - 77.9 °F 94% 29.75 in 10.0 mi East 5.8 mph - N/A   Mostly Cloudy
5:15 PM 79.9 °F - 78.1 °F 94% 29.76 in 10.0 mi ESE 5.8 mph - N/A   Scattered Clouds
5:35 PM 79.2 °F - 77.4 °F 94% 29.76 in 10.0 mi ESE 8.1 mph - N/A   Scattered Clouds
5:55 PM 79.2 °F - 77.4 °F 94% 29.76 in 10.0 mi SE 5.8 mph - N/A   Mostly Cloudy
6:15 PM 79.0 °F - 77.4 °F 95% 29.76 in 10.0 mi ESE 3.5 mph - N/A   Overcast
6:35 PM 78.3 °F - 77.9 °F 99% 29.76 in 4.0 mi Calm Calm - N/A Rain Rain
6:55 PM 78.1 °F - 78.1 °F 100% 29.76 in 4.0 mi Calm Calm - N/A   Drizzle
7:15 PM 78.3 °F - 78.1 °F 99% 29.76 in 10.0 mi ENE 3.5 mph - N/A   Overcast
7:35 PM 77.9 °F - 77.9 °F 100% 29.76 in 10.0 mi NE 4.6 mph - N/A   Overcast
7:55 PM 77.7 °F - 77.7 °F 100% 29.77 in 7.0 mi ENE 6.9 mph - N/A   Overcast
8:15 PM 77.0 °F - 77.0 °F 100% 29.77 in 3.0 mi ENE 11.5 mph - 0.11 in Rain Heavy Rain
8:35 PM 76.6 °F - 76.6 °F 100% 29.78 in 4.0 mi ENE 5.8 mph - 0.27 in Rain Light Rain
8:55 PM 76.5 °F - 76.5 °F 100% 29.79 in 7.0 mi ENE 4.6 mph - 0.27 in   Light Drizzle
9:15 PM 76.1 °F - 76.1 °F 100% 29.79 in 7.0 mi ENE 3.5 mph - N/A   Overcast
9:35 PM 76.3 °F - 76.3 °F 100% 29.79 in 5.0 mi ENE 4.6 mph - N/A   Overcast
9:55 PM 76.5 °F - 76.5 °F 100% 29.79 in 5.0 mi ENE 9.2 mph - 0.01 in Rain Light Rain
10:15 PM 76.1 °F - 76.1 °F 100% 29.80 in 4.0 mi ENE 5.8 mph - 0.04 in Rain Heavy Rain
11:15 PM 76.1 °F - 76.1 °F 100% 29.80 in 7.0 mi NE 6.9 mph - 0.01 in   Overcast
11:35 PM 76.1 °F - 76.1 °F 100% 29.80 in 7.0 mi NE 5.8 mph - 0.01 in   Overcast
11:55 PM 76.1 °F - 76.1 °F 100% 29.80 in 5.0 mi NE 8.1 mph - 0.01 in   Overcast